DW9106 Madrid ES current weather conditions

sailwx.info

Wind from 263 at 4 knots gusting 20

Air temperature 30.6° C
Dewpoint 8.8° C

Last reported at 2014-Sep-02 18:44 UTC.
Time now 2014-Sep-02 19:10 UTC

Location: N 40°23' W 003°38'.
View on Google Maps.

See reports from other nearby stations

  
Tides and Currents Weather Stations Pressure Air Temp Water Temp Dewpoint Dewpoint Depression Visibility Wind Speed Wind Dir Waves Ship Positions
date/time (UTC)wind fromknots sea level pressurealtimeterstation pressurevisibilityair tempwater tempwave heightnotes
2014-Sep-02 18:44 263 4 gusting 20 30.6
2014-Sep-02 18:29 217 4 gusting 13 31.1
2014-Sep-02 18:14 223 5 gusting 13 30.0
2014-Sep-02 17:59 360 3 gusting 14 30.6
2014-Sep-02 17:44 191 7 gusting 17 33.9
2014-Sep-02 17:29 182 3 gusting 7 35.0
2014-Sep-02 17:14 284 3 gusting 8 35.6
2014-Sep-02 16:59 249 1 gusting 6 36.7
2014-Sep-02 16:44 290 0 gusting 6 36.7
2014-Sep-02 16:28 172 1 gusting 9 36.7
2014-Sep-02 16:13 248 0 gusting 6 36.7
2014-Sep-02 15:58 281 3 gusting 7 36.7
2014-Sep-02 15:43 092 2 gusting 7 37.2
2014-Sep-02 15:28 216 0 gusting 5 37.2
2014-Sep-02 14:58 271 3 gusting 8 36.7
2014-Sep-02 14:43 350 2 gusting 12 36.7
2014-Sep-02 14:28 196 4 gusting 6 36.1
2014-Sep-02 14:13 286 1 gusting 6 36.7
2014-Sep-02 13:58 182 36.1
2014-Sep-02 13:43 244 2 gusting 6 36.1
2014-Sep-02 13:28 334 1 gusting 6 35.6
2014-Sep-02 13:13 229 3 gusting 6 35.6
2014-Sep-02 12:58 073 0 gusting 6 35.0
2014-Sep-02 12:43 231 2 gusting 6 35.0
2014-Sep-02 12:28 185 1 gusting 6 34.4
2014-Sep-02 12:13 093 2 gusting 7 34.4
2014-Sep-02 11:58 123 1 gusting 6 33.3
2014-Sep-02 11:43 074 3 gusting 6 33.9
2014-Sep-02 11:28 166 2 gusting 5 33.3
2014-Sep-02 11:13 173 0 gusting 3 33.3
2014-Sep-02 10:58 147 32.2
2014-Sep-02 10:42 222 0 gusting 3 32.2
2014-Sep-02 10:12 061 30.6
2014-Sep-02 09:57 080 0 gusting 4 29.4
2014-Sep-02 09:42 082 2 gusting 7 28.3
2014-Sep-02 09:27 096 2 gusting 5 27.8
2014-Sep-02 09:12 106 2 gusting 6 27.2
2014-Sep-02 08:57 052 2 gusting 6 26.7
2014-Sep-02 08:42 042 3 gusting 6 26.1
2014-Sep-02 08:27 050 2 gusting 5 25.6
2014-Sep-02 08:12 069 2 gusting 6 25.0
2014-Sep-02 07:57 041 3 gusting 6 24.4
2014-Sep-02 07:42 044 2 gusting 6 23.9
2014-Sep-02 07:27 016 1 gusting 8 23.3
2014-Sep-02 07:12 023 2 gusting 6 22.8
2014-Sep-02 06:57 065 2 gusting 5 22.8
2014-Sep-02 06:42 019 1 gusting 5 22.2
2014-Sep-02 06:26 046 1 gusting 5 22.2
2014-Sep-02 06:11 033 21.7
2014-Sep-02 05:56 049 2 gusting 5 21.7
2014-Sep-02 05:41 067 1 gusting 5 22.2
2014-Sep-02 05:26 128 0 gusting 3 22.2
2014-Sep-02 05:11 027 0 gusting 5 22.8
2014-Sep-02 04:56 087 0 gusting 3 22.8
2014-Sep-02 04:41 044 1 gusting 6 23.3
2014-Sep-02 04:26 041 0 gusting 6 23.3
2014-Sep-02 04:11 044 1 gusting 6 23.3
2014-Sep-02 03:56 055 0 gusting 3 23.3
2014-Sep-02 03:41 038 1 gusting 6 23.3
2014-Sep-02 03:26 056 0 gusting 4 23.9
2014-Sep-02 03:11 053 23.9
2014-Sep-02 02:56 076 1 gusting 7 24.4
2014-Sep-02 02:41 016 3 gusting 8 24.4
2014-Sep-02 02:26 050 3 gusting 9 24.4
2014-Sep-02 02:11 057 5 gusting 9 24.4
2014-Sep-02 01:56 037 6 gusting 10 25.0
2014-Sep-02 01:41 038 5 gusting 10 25.0
2014-Sep-02 01:26 033 5 gusting 10 25.6
2014-Sep-02 01:11 069 7 gusting 14 25.6
2014-Sep-02 00:56 030 6 gusting 12 25.6
2014-Sep-02 00:41 059 5 gusting 12 26.1
2014-Sep-02 00:26 051 6 gusting 12 26.7
2014-Sep-02 00:11 065 3 gusting 10 27.2
2014-Sep-01 23:56 078 5 gusting 11 27.8
2014-Sep-01 23:25 060 4 gusting 7 27.8
2014-Sep-01 23:10 056 5 gusting 10 28.3
2014-Sep-01 22:55 042 4 gusting 9 28.3
2014-Sep-01 22:40 042 4 gusting 11 28.9
2014-Sep-01 22:25 045 27.8
2014-Sep-01 22:10 244 28.3
2014-Sep-01 21:55 244 29.4
2014-Sep-01 21:40 241 30.0
2014-Sep-01 21:25 269 1 gusting 5 30.0
2014-Sep-01 21:10 268 29.4
2014-Sep-01 20:55 254 29.4
2014-Sep-01 20:40 254 29.4
2014-Sep-01 20:25 254 30.0
2014-Sep-01 20:10 254 30.0
2014-Sep-01 19:55 254 30.6
2014-Sep-01 19:40 254 31.1
2014-Sep-01 19:25 254 31.1
2014-Sep-01 19:10 250 31.7
2014-Sep-01 18:55 229 0 gusting 3 32.2
2014-Sep-01 18:40 265 0 gusting 4 32.8
2014-Sep-01 18:25 265 33.9
2014-Sep-01 18:10 240 1 gusting 6 34.4
2014-Sep-01 17:55 180 0 gusting 4 34.4
2014-Sep-01 17:40 202 1 gusting 4 35.0
2014-Sep-01 17:25 261 2 gusting 5 35.0
2014-Sep-01 17:10 250 2 gusting 7 35.0
2014-Sep-01 16:55 228 1 gusting 6 35.0
2014-Sep-01 16:40 123 1 gusting 8 35.0
2014-Sep-01 16:25 247 3 gusting 10 35.0
2014-Sep-01 16:10 178 0 gusting 6 35.6
2014-Sep-01 15:55 138 2 gusting 8 35.0
2014-Sep-01 15:40 115 1 gusting 6 35.0
2014-Sep-01 15:25 242 1 gusting 6 35.0
2014-Sep-01 15:10 188 1 gusting 9 35.0
2014-Sep-01 14:55 098 3 gusting 6 35.0
2014-Sep-01 14:40 151 0 gusting 9 35.0
2014-Sep-01 14:25 157 1 gusting 6 34.4
2014-Sep-01 14:10 155 0 gusting 6 35.0
2014-Sep-01 13:55 024 1 gusting 4 35.0
2014-Sep-01 13:40 170 0 gusting 6 34.4
2014-Sep-01 13:25 285 1 gusting 8 34.4
2014-Sep-01 13:10 294 1 gusting 7 33.3
2014-Sep-01 12:55 107 1 gusting 6 33.9
2014-Sep-01 12:40 245 1 gusting 5 33.3
2014-Sep-01 12:25 183 2 gusting 7 33.3
2014-Sep-01 12:10 288 0 gusting 4 33.3
2014-Sep-01 11:55 245 32.8
2014-Sep-01 11:39 061 3 gusting 4 32.2
2014-Sep-01 11:24 094 1 gusting 4 31.7
2014-Sep-01 11:09 187 0 gusting 5 31.1
2014-Sep-01 10:54 242 0 gusting 3 31.1
2014-Sep-01 10:39 056 0 gusting 3 29.4
2014-Sep-01 10:24 067 2 gusting 4 28.3
2014-Sep-01 10:09 065 28.3
2014-Sep-01 09:54 071 1 gusting 4 27.8
2014-Sep-01 09:39 056 1 gusting 5 27.2
2014-Sep-01 09:24 045 1 gusting 6 26.7
2014-Sep-01 09:09 074 0 gusting 5 25.6
2014-Sep-01 08:54 071 1 gusting 5 25.6
2014-Sep-01 08:39 031 0 gusting 6 25.0
2014-Sep-01 08:24 063 2 gusting 5 24.4
2014-Sep-01 08:09 090 23.9
2014-Sep-01 07:54 037 2 gusting 7 23.3
2014-Sep-01 07:38 082 2 gusting 6 22.8
2014-Sep-01 07:23 059 2 gusting 6 22.8
2014-Sep-01 07:08 033 1 gusting 6 22.2
2014-Sep-01 06:53 027 2 gusting 6 21.7
2014-Sep-01 06:38 042 0 gusting 5 21.7
2014-Sep-01 06:23 045 1 gusting 4 21.7
2014-Sep-01 06:08 029 1 gusting 4 21.1
2014-Sep-01 05:23 044 21.1
2014-Sep-01 05:08 055 1 gusting 4 21.7
2014-Sep-01 04:53 038 0 gusting 2 21.7
2014-Sep-01 04:38 041 0 gusting 2 21.7
2014-Sep-01 04:23 057 21.7
2014-Sep-01 04:08 052 0 gusting 5 22.2
2014-Sep-01 03:53 037 0 gusting 5 22.2
2014-Sep-01 03:38 054 0 gusting 4 22.2
2014-Sep-01 03:08 054 1 gusting 6 22.2
2014-Sep-01 02:53 046 1 gusting 6 22.8
2014-Sep-01 02:38 050 2 gusting 5 22.8
2014-Sep-01 02:23 044 2 gusting 5 22.8
2014-Sep-01 02:08 080 2 gusting 6 22.8
2014-Sep-01 01:53 050 2 gusting 6 23.3
2014-Sep-01 01:38 050 3 gusting 7 23.3
2014-Sep-01 01:23 036 1 gusting 5 23.3
2014-Sep-01 01:08 041 2 gusting 6 23.9
2014-Sep-01 00:53 040 2 gusting 6 23.9
2014-Sep-01 00:38 065 0 gusting 5 24.4
2014-Sep-01 00:23 038 2 gusting 6 24.4
2014-Aug-31 23:52 073 2 gusting 6 25.0
2014-Aug-31 23:37 030 3 gusting 8 25.0
2014-Aug-31 23:22 069 3 gusting 7 25.6
2014-Aug-31 23:07 058 2 gusting 6 25.6
2014-Aug-31 22:52 047 2 gusting 5 26.1
2014-Aug-31 22:37 044 2 gusting 6 26.1
2014-Aug-31 22:22 030 4 gusting 8 26.1
2014-Aug-31 22:07 031 3 gusting 6 26.7
2014-Aug-31 21:52 053 3 gusting 6 27.2
2014-Aug-31 21:37 064 4 gusting 6 27.2
2014-Aug-31 21:22 019 3 gusting 7 27.8
2014-Aug-31 21:07 024 1 gusting 5 28.3
2014-Aug-31 20:52 059 28.3
2014-Aug-31 20:37 301 28.9
2014-Aug-31 20:22 028 0 gusting 3 28.9
2014-Aug-31 20:07 035 29.4
2014-Aug-31 19:52 035 30.0
2014-Aug-31 19:37 038 0 gusting 2 30.0
2014-Aug-31 19:22 063 1 gusting 4 30.6
2014-Aug-31 19:07 032 1 gusting 5 30.6